Regional Weather Roundup
Issued by NWS

Home | Current Version | Previous Version | Text Only | Print | Product List | Glossary Off
Versions: 1 2 3 4 5 6 7 8 9 10 11 12 13 14 15 16 17 18 19 20 21 22 23 24 25 26 27 28 29 30 31 32 33 34 35 36 37 38 39 40 41 42 43 44 45 46 47 48 49 50

000
ASUS43 KBIS 210410
RWRND

NORTH DAKOTA REGIONAL WEATHER ROUNDUP
NATIONAL WEATHER SERVICE BISMARCK ND
1100 PM CDT WED AUG 20 2014

NOTE: "FAIR" INDICATES FEW OR NO CLOUDS BELOW 12,000 FEET WITH NO
SIGNIFICANT WEATHER AND/OR OBSTRUCTIONS TO VISIBILITY.


NDZ001>003-009>011-017-210500-
NORTHWEST NORTH DAKOTA

CITY           SKY/WX    TMP DP  RH WIND       PRES   REMARKS
WILLISTON      PTCLDY    64  61  90 NE3       29.78R
MINOT          LGT RAIN  66  63  90 CALM      29.77R
MINOT AFB      LGT RAIN  65  65  99 SE9       29.76S
$$

NDZ018>021-031>035-040>046-210500-
SOUTHWEST NORTH DAKOTA

CITY           SKY/WX    TMP DP  RH WIND       PRES   REMARKS
BISMARCK       MOCLDY    71  69  93 E10       29.71R
DICKINSON      CLEAR     60  57  89 W6        29.78S
GARRISON         N/A     66  64  93 NE6       29.75F
HETTINGER ARPT CLEAR     60  58  92 W6        29.79S
$$

NDZ004>008-012>016-024-026-027-054-210500-
NORTHEAST NORTH DAKOTA

CITY           SKY/WX    TMP DP  RH WIND       PRES   REMARKS
GRAND FORKS    MOCLDY    73  67  81 SE9       29.78R
GRND FRKS AFB  MOCLDY    71  70  99 SE7       29.79R
DEVILS LAKE    CLOUDY    73  64  73 SE12      29.77S
$$

NDZ022-023-025-028>030-036>039-047>053-210500-
SOUTHEAST NORTH DAKOTA

CITY           SKY/WX    TMP DP  RH WIND       PRES   REMARKS
FARGO          MOCLDY    74  67  78 SE13      29.77F
JAMESTOWN      LGT RAIN  72  68  87 SE6       29.79R
$$



USA.gov is the U.S. government's official web portal to all federal, state and local government web resources and services.